Ping Pong Board
บอร์ด: คนไทยเก่งปิงปอง
บอร์ด: การแข่งขันทั่วไทย
บอร์ด: พูดคุยทั่วไป-สินค้ามือ 2
บอร์ด: สินค้ามือสอง On FB
บอร์ด: แปลงสินทรัพย์เป็นทุน
บอร์ด: ขายสินค้าใหม่ มือ 1
บอร์ด: รีวิวอุปกรณ์
บอร์ด : รีวิวอุปกรณ์ On FB
บอร์ด: เทคนิคการเล่นปิงปอง
บอร์ด: การเมืองเรื่องปิงปอง
บอร์ด: บริจาคอุปกรณ์เหลือใช้
บอร์ด: ปรึกษาอาการบาดเจ็บ
บอร์ด: ปิงปองทุกจังหวัด
บอร์ด: ชมรมคนเล่นยางเม็ด
บอร์ด: จับแบบไม้จีน ไม้ญี่ปุ่น
บอร์ด: สนทนาภาษาปิงปอง
บอร์ด: นัดกันไปเรียน ไปเล่น
บอร์ด: Chat Online
บอร์ด: เล่นเกมส์ปิงปอง
บอร์ด: เกมส์ออนไลน์
สำหรับสมาชิก
นามปากกา
รหัสผ่าน
ลืมรหัสผ่าน
สมัครสมาชิกใช้งาน
กระทู้โดนใจชาวปิงปอง
สถานที่รับสอนปิงปอง
บอร์ดซื้อขายสินค้ามือสอง และพูดคุยแลกเปลี่ยนความคิดเห็นกัน
ตั้งกระทู้-เฉพาะกีฬาปิงปอง
ค้นหาข้อมูล :
ค้นหาจาก :
@เรื่อง.........FromAnswer-ReaderLast Answer
ขายไม้ KAZAN FL สภาพไม่สวย 1 ไม้ครับ TKMP10/118513/3/2556 12:12:52
รีวิวไม้ปิงปอง Joola Eagle Carbon จาก mytabletennis.net ครับ Pimple Lover5/123713/3/2556 10:52:15
รับไม้ DONICด้าม ST ทุกรุ่นจํานวนมาก ซาโซริ1/60913/3/2556 7:00:37
tenergy 80 เมื่อไหร่จะมาเมืองไทย AOFARB0/43613/3/2556 6:20:08
ขายไม้Nittaku นะจ๊ะ16/207413/3/2556 0:21:23
รับไม้gergelyรุ่นอะไรก็ได้ biggluckk3/58812/3/2556 23:31:03
@@@@ขายTENERGY05และ25 แผ่นสีเหลี่ยม 1400บาท และไม้MIZUTANI JUN@@@@ asus9/120912/3/2556 23:21:38
ขาย Hurricane 3 ฟองน้ำ 19 # SingSaMut8/79512/3/2556 23:06:29
ขายยางดำ Target Ultim 50 องศา สภาพ 2 ชั่วโมงครับ peterpan0936/82912/3/2556 22:14:04
รับไม้ธรรมชาติหลายรายการ seacret8/74112/3/2556 22:12:37
หานักกีฬาชื่อ ปัญจพล0/58912/3/2556 21:34:52
ขาย>>donic waldner carbon senso ns150sp9/72312/3/2556 19:37:21
ไม้แนะนำครับ Wallcool0/54412/3/2556 19:11:33
Xiom Aria FL ไม้ดีแบ่งๆกันเล่น SingSaMut5/93812/3/2556 18:57:19
--------ขายไม้ ALC รุ่นใหม่ของ BTY 1 ด้าม และไม้ DONIC กับ YASAKAรุ่นหายาก(เลิกผลิต)2 ด้ามครับ-------------- เฉิน21/136812/3/2556 18:41:55
ขายไม้ปิงปอง พร้ิอมยาง สภาพดี pingpongmin13/82712/3/2556 18:30:21
ขายhexer powerspongeแดงสภาพใหม่ allrounder5/108312/3/2556 17:38:20
ขาย BUTTERFLY AMULTART FL 1 อัน ธารา28/241812/3/2556 16:49:16
ขอคำแนะนำแนวทางการพัฒนากีฬาปิงปองของไทย ร่วมด้วยช่วยกันคิด118/951512/3/2556 15:56:15
วีรบุรุษปิงปองของคุณคือใคร? หลังม่านพิรุณ138/1795112/3/2556 15:51:03
ช่วยแนะนำไม้ที่ดีที่สุดของคุณ ช่วยแชร์ประสพการ์ณกันน่อยครับ ช่วยที saranyapong3/65112/3/2556 15:50:37
ขายยาง SRIVER G3 fx รัชปากน้ำ7/99812/3/2556 15:07:11
TIMO BOLL ALC - ST หน้าตาดี มีกล่อง นาธาน โอโม่23/83212/3/2556 14:59:47
ขายไม้ สติก้า ราคาถูกๆ Timo Back8/78912/3/2556 14:22:14
รับไม้carbon schlager ครับเท่าไรว่ามา oakpingpong16/110512/3/2556 14:04:32
ขายไม้ Butterfly m-maze ด้ามตรง kom_cha16/148612/3/2556 12:53:44
รับไม้ปิงปองหลายรายการครับ ARMz37/108512/3/2556 12:51:24
ขายรองเท้า p_pig5/55912/3/2556 12:08:16
TG05 สีดำ + TG05FX สีแดง แผ่นสี่เหลี่ยม thanyah17/149312/3/2556 11:49:26
<(^u^)/ ขายไม้ ยาง มือสอง หลายรายการครับ \(*o*)> sardius131/47912/3/2556 11:17:16
รับยางจีน แข็ง เหนียว หนัก จูนขึ้น Mr.Aldehyde6/61012/3/2556 11:13:59
เสื้อ BUTTERFLY ลายเทพ 2 ตัว ปรับราคา lupang14/76412/3/2556 9:31:12
ขายไม้ สติก้า ราคาถูกๆ Timo Back0/47812/3/2556 8:54:27
รับ yasaka dynamix 17 st ครับ AOFARB1/48612/3/2556 6:40:13
Xiom Sigma I Europe ต้องการแลกกับ Tibhar Evolution machiney8/74812/3/2556 1:07:26
giant dragon karate soft หมดทำยังไง โคตรเซียน4/65612/3/2556 0:18:32
อยางได้ xiom axelo ST มอสไม้เดี่ยว1/44911/3/2556 22:58:50
ขายไม้โหดกระโดดตบ XIOM AXELO ไม้บ้าพลังสายพันธ์เกาหลี Veza14/200011/3/2556 20:49:58
มี PF4 85 มาแบ่งกันชมครับ มิตรภาพ8/78311/3/2556 20:44:29
ขายไม้หลายรายการครับ!!!(ภาคต่อ) ห่างเป็นวา29/167911/3/2556 20:38:17
รับNittaku Acoustic,Latika ,Clipper CR ตัน ด้ามFL ST seacret1/47411/3/2556 19:51:16
ขายไม้ Adidas รุ่น C500 ด้ามFL มือสอง Nevery30/216711/3/2556 19:22:02
ตั้งรับยางแดงมือสองดังนี้ Sport2/45411/3/2556 18:51:04
ซื้อไม้อะไรดี โคตรเซียน12/85511/3/2556 16:48:15
รับไม้ Kong linghui Special ตูดดำ ด้ามอะไรก็ได้ saranyapong0/59711/3/2556 16:15:05
Timo Boll ALC ST ARMz26/106811/3/2556 15:49:33
ถึงคุณ ห่างเป็นวา,kimminsu,nikonsawat1 ARMz3/52011/3/2556 15:27:03
Butterfly SCHLAGER FL XIOM V1QUAD ST eddy17/103811/3/2556 15:14:58
ขาย ไม้ XIOM V1QUAD ST สภาพไร้ริ้วรอยพร้อมกล่อง eddy8/60311/3/2556 15:14:38
Timo Boll W7 ARMz13/93911/3/2556 14:43:51
รับยางเม็ดยาว Yasaka PHANTOM 0012 cody0/58011/3/2556 13:12:12
รับซองใส่ไม้ปิงปองด่วนครับใส่สองไม้ก็โอเคร ouy9993/56311/3/2556 13:03:17
SELL KREANGA CARBON ULC !!!!! MrMuanjhu5/67711/3/2556 12:47:57
ขาย keyshot light สภาพ 98% nikonsawat114/88911/3/2556 12:38:00
ถึงคุณ chawin ARMz7/58411/3/2556 12:02:08
ฝากขาย GERGELY ALPHA-FL คับบ MrMuanjhu9/96811/3/2556 10:37:51
รับ Schlager Carbon FL ป้ายเงิน สภาพสวยครับ chuklebolt30/135011/3/2556 9:44:42
ลองขายtimo boll spark+กล่องสภาพ98% biggluckk17/74011/3/2556 9:42:06
รับยางยุโรปสีแดงดังนี้ allrounder6/66011/3/2556 7:43:13
ไม้ XIOM V1QUAD ST eddy6/52011/3/2556 0:23:27
ขายไม้ Xiom Stradivarius darfie21/104210/3/2556 23:59:11
ขายไม้ Butterfly Repiaredo - FL ตูดผีเสื้อดำ darfie15/98910/3/2556 23:30:34
มีไม้timo boll spark+กล่องสภาพ98%ต้องการเเลกไม้ของbutลองเสนอมาได้ครับ biggluckk31/94610/3/2556 23:23:19
ได้ลองยางรุ่นใหม่ของ Tuttle อีกสองรุ่นครับ Pimple Lover16/106210/3/2556 23:17:57
ขายยางดำ Target Ultim 50 องศา สภาพ 2 ชั่วโมงครับ peterpan0930/40110/3/2556 22:40:52
zhang jike excellent blade and tenergy 64 coffee guide11/123110/3/2556 22:23:43
รับไม้ปิงปองครับ ARMz8/65110/3/2556 21:03:46
ที่สุวรรณคูหามีที่ตีปิงปองมั้ย peterud8/51510/3/2556 19:31:14
ขาย Timo boll ALC 2500 บาทเท่านั้น รูปเดียวตามมา สรยุทธ19/127310/3/2556 17:29:51
ขายAurus soft สีดำแผ่นสีเหลี่ยม Bulbaaa7/72110/3/2556 15:56:07
ถึงคุณ -VPN- นะครับ jdummy7/54110/3/2556 15:12:21
มีไม้ Fire Wall Plus ST มาแลก NutTew10/91410/3/2556 13:13:37
ปล่อยไม้Adidas FORCE+ยางR6+ยางเม็ดสั้นSpin NutTew27/120010/3/2556 13:13:25
รับไม้ Gergely เพื่อไว้เป็นไม้สำรอง ราคาไม่แรงครับ spichit3/53610/3/2556 11:00:25
ขออนุญาตขายลูกปิงปอง butterfly training ball สีส้ม 50 ลูกครับ anonymousminor0/56210/3/2556 10:32:42
รับ..malin carbon fl ราคาไม่แรง Loysawai8/62410/3/2556 9:39:03
รับ..timoboll alc;iolite neo..ด้ามfl ราคาไม่แรง Loysawai8/82410/3/2556 9:35:47
มียางtibhar volcanoมาขอเเลก biggluckk5/70310/3/2556 7:39:27
ขายไม้ CS ทำเอง + ยางแดง อายุ 15 นาที 350+ems singha5/7649/3/2556 18:23:55
ขาย ยาง Calibra Spin+CalibraPlus มือสอง ดําแดง ชางมิน9/7019/3/2556 17:54:47
ขาย ไม้ปิงปอง buterfly promolac st+ baracuda 3,600บาท panther6/10249/3/2556 17:24:31
ขายไม้คาร์บอน Palio TNT-1 ด้ามหางปลา ไม้จีนไร้รัก12/12809/3/2556 15:23:16
ขายไม้ธรรมชาติ+ยางเม็ด ครับ >,< ARMz6/6779/3/2556 14:28:47
รับฟองน้ำที่เอาไว้ลอกกาวปิงปอง DeZmoineS0/4209/3/2556 14:27:46
รับ Timo Boll Spark ,ST ครับ vodkapor23/7909/3/2556 14:06:20
ถามพี่ ป๊อป pimple lover costheta8/11649/3/2556 11:09:06
ช่วยแนะนำไม้ที่ตีลูกท็อปสปินได้ง่ายๆให้ด้วยครับพีๆ Sayan3/6609/3/2556 10:55:55
ขายไม้ Andro รุ่น kinetic cf carbon off+ พร้อมยาง สภาพ 99% ราคาถูก!!! aven14/8579/3/2556 10:20:18
ขาย 5Q goho22/7379/3/2556 9:52:17
ขายไม้หลายรายการครับ!!! ห่างเป็นวา54/22979/3/2556 9:21:39
สอบถามครับเรื่องยางตัวไหนคล้าย Tg05 มากที่สุด ARMz4/7099/3/2556 6:34:56
ขายยางปิงปองครับ(ขออนุญาติตั้งกระทู้ใหม่ครับ) vodkapor27/13489/3/2556 4:10:38
หาสินค้ามือสองยังไม่ถูกใจ มานั่งชมนักกีฬาซ้อมปิงปองแก้เซ็งได้ที่นี่ Webmaster4/6889/3/2556 1:38:22
รับไม้Stiga CC7 ครับ ซาโซริ0/4439/3/2556 1:32:17
ตั้งรับไม้ XIOM AXELO ด้าม fl/st กะได้ครับ Kuboy2/4699/3/2556 0:46:06
สวัสดีครับทุกท่าน สิรานุวรรตน์3/6458/3/2556 23:50:34
(ขออนุญาติครับ) vodkapor เปลี่ยนขื่อเป็น ARMz นะครับ พอดีอยากใช้ชื่อตัวเอง vodkapor0/4848/3/2556 23:39:01
รับเม็ดยาวSANWEI CODE ox เด็กดี3/5288/3/2556 23:03:13
รับแลกbutterfly joosehyukหรืออื่นๆลองเสนอมาหรือยาง4เหลี่ยม peterud10/6048/3/2556 22:23:34
ประกาศรับไม้xiom ขอแบบเด้งๆ Faros15/6878/3/2556 22:04:14
ขาย Butterfly TIMO BOLL SPIRIT หรือแลก Wallcool36/19688/3/2556 21:06:41
ช่วยบอกหน่อยครับ..คุณภาพของยางมีแพ็คกิ้งกับไม่มีแพ็๐ ต่างกันไหมครับ? singha4/6638/3/2556 19:17:08
รับยางแฮมมอน ดํา+แดงครับ ชางมิน0/4358/3/2556 18:22:51
รับViscaria สภาพดี Bulbaaa9/6578/3/2556 17:57:08
Rakza 7 soft เทียบ ธรรมดา Neo7471/7318/3/2556 17:32:43
ขาย Yasaka Mark V AD แดง กับ Mark V 30 ดำ 800 บาท รวมส่งคับ choinarak2/7318/3/2556 16:54:59
ยางเม็ดยาวมาแลก juneonion0816/5448/3/2556 15:21:55
ขายไม้ Cliper CR ด้ามกลวง สภาพใช้งาน แต่ขอบเนียน ถูก Speed Of Light14/7588/3/2556 13:53:21
**ขาย schlager FL,primorac AN ตูดผีเสื้อจร้า** spinder21/9828/3/2556 13:51:38
ไม้butterfly fukuhara AI ควรใช้กับยางอะไรดีครับ ข้าวต้มหมูใส่กุ้งแห้2/5878/3/2556 12:43:14
มียางTibhar grass d.tech 1.2 สีแดง มาขอแลก NutTew7/5148/3/2556 12:31:05
ครั้งแรกของโลกที่เม็ดยาวได้แชมป์Swedish Championship 2013 สรยุทธ9/10868/3/2556 12:20:39
ทำไมเครื่องยิงลูกปิงปอง NEWGY 2040 ยิงไม่แรงเหมือนเดิมครับ สรยุทธ1/5208/3/2556 11:51:46
ขาย timo boll spark fl 97% TONZAZA11/6728/3/2556 11:30:19
ขายไม้ปิงปอง butterfly ครับ เชิญชมด้านใน Espada16/29338/3/2556 10:43:59
ขาย Butterfly Viscaria FL O-Photino11/13228/3/2556 10:34:36
Review Hurricane 3 provincial new package Neo7473/7578/3/2556 10:07:56
มีงบ1500บาทอยากได้ไม้มือสองสายบุกแบบโหดๆอ่ะครับมีรายละเอียดครับ ข้าวต้มหมูใส่กุ้งแห้8/8508/3/2556 9:28:02
ขายไม้ Joola Eagle Carbon ครับ Pimple Lover10/12518/3/2556 9:27:18
ขายไม้ ยาง ใหม่ ดี ๆ แพง ๆ ทั้งนั้น Back Devil26/26218/3/2556 8:47:12
Sell.! Rakza 7 soft สีดำ สภาพพอไปวัดไปวาขายตามสภาพ 303 บาท Nai19804/6788/3/2556 8:46:11
kong linghui special ต้นรัก12/10378/3/2556 8:20:49
ตามหาเม็ดยาวรับมีฟองน้ำไม่เกิน200คับ teay290961/4278/3/2556 5:52:24
ขายยาง Donic Acuda 1,000 มีทั้ง ดำ แดง thekaroe0/6138/3/2556 2:09:44
ขอเชิญร่วมแข่ง Galaxy cup 3.56 ( 9-10 มี.ค.) หยวนซียวเจี๋ย+6/7127/3/2556 23:58:09
Navigator GT ฟองน้ำเยอรมัน Neo74751/17827/3/2556 23:51:24
ปล่อยไม้ YASAKA ไดนามิก17 ราคาถูก!!!!! swat122216/9137/3/2556 23:34:07
เสื้อปิงปองมือสอง butterfly mizuno ราคาถูกๆจร้า 2/3/56 baifern28/11047/3/2556 23:33:19
แลก/ขายยางมือสอง HEXER + สีดำ satanapat_amp11/7827/3/2556 22:47:46
ยกเลิกรายการ sanwei มิตรภาพ คร้งที่ 17 มิตรภาพ0/5027/3/2556 22:06:33
ระเบียบการแข่งขัน "SANWEI" มิตรภาพครั้งที่ 17 วันอาทิตย์ที่ 31 มีนาคม มิตรภาพ15/11877/3/2556 22:00:23
SALE : Tibhar Samsonov Force Pro + Yasaka Xtend HS คู่ machiney15/16557/3/2556 21:46:17
ขายยางสภาพดีมาก hugee15/8957/3/2556 21:04:17
BUY!....HEXER + สีดำ(No pack)สี่เหลี่ยมหรือตัดแล้ว สภาพงาม ครับ Nai19807/8357/3/2556 20:13:16
มีใครปล่อยบ้างเม็ดยาวSANWEI CODE ox เด็กดี0/3857/3/2556 20:11:18
แจก ปฏิทิน โปสเตอร์นักกีฬาของทางห้างเซี่ยงไฮ้ครับ KreangaMD2/6817/3/2556 18:44:42
ขายยาง Stiga Caliba LT Spin สีดำ ฟองน้ำ max O-Photino8/6277/3/2556 18:00:07
นานๆมาเยี่ยมที ปล่อยของเก่าแต่เข้าท่า... jojos7/8107/3/2556 16:06:02
ถึงคุณ NineMazunov vodkapor2/5017/3/2556 15:11:18
รับยางtenzoneมือสอง tee-holiday6/5947/3/2556 13:47:01
ขายไม้ friendship 729 ปรับระดับได้ และ ยางเปล่าอีกมากมาย !! aven6/7857/3/2556 13:31:44
มีไม้ butterfly มาขาย สามไม้+ยาง ram828/12707/3/2556 12:02:18
stiga allround classic b-ing6/5907/3/2556 11:06:37
สถานเล่นปิงปองเชียงใหม่ seng461/4857/3/2556 9:47:23
ขายอีกครั้งไม้พร้องยาง 600 พร้อมส่ง a206610/8597/3/2556 7:41:32
รับไม้ defence ยี่ห้ออะไรก้ได้คับ cody16/9067/3/2556 7:10:45
ขายยางปิงปอง มือ1 มือ2ครับ Bulbaaa18/11727/3/2556 0:33:03
ขายเสื้อลายเทพ สภาพดี 3 ตัวเท่านั้นครับ lupang20/8587/3/2556 0:27:37
ขอถามหน่อยครับเรื่องยาง Bulbaaa6/5236/3/2556 22:45:27
ขาย Bryce Speed 2.1 ดำ แผ่นสี่เหลี่ยม vodkapor6/7586/3/2556 22:29:32
ขายยางสภาพดีราคาถูก biggluckk14/8526/3/2556 21:38:59
ด่วน!!!! ขายยาง Yinhe Milkyway Moon pro สภาพใหม่สุดๆ สภาพ 98% muzahikung3/8246/3/2556 19:43:58
...สถานที่สันทนาการสำหรับคอปิงปอง แห่งหนึ่งในศูนย์ราชการแจ้งวัฒนะ.... ท้าวเนินดำ9/11876/3/2556 19:05:08
ขายไม้บัตฯ 2ไม้ ครับ TKMP2/10116/3/2556 16:47:19
ขายยาง TG64 ดำ, แดง 9 แผ่นครับ TKMP38/17436/3/2556 16:39:01
ขาย Force Pro, 1Q xD(แดง) , 5Q(ดำ) Spin Off22/13286/3/2556 16:07:47
ขายไม้ สติก้า ออลราว คลาสสิค ด้ามตรง ด้ามตัน สภาพ 20นาที Timo Back1/5496/3/2556 15:54:31
"เรื่องการคัดทีมชาติปีนี้" ไปอ่านมาผมก็อยากรู้เหมือนกัน ใครรู้คำตอบบ้าง? สรยุทธ5/11366/3/2556 11:35:06
มีใครเคยใช้ไม้ SANWEI WHITE SUPERMAN บ้างครับรีวิวให้ผมฟังทีครับ Speed Of Light4/8276/3/2556 11:25:57
S ยาง stiga Boost tp สีดำ แม็ก judo8/8226/3/2556 9:55:43
พี่ที่ชมรมฝากหาไม้ เกอเกรี่ มือ2 ราคาไม่เกิน 2 พันครับ Timo Back0/4276/3/2556 9:51:46
ขายกล้องถ่ายรูปcannon450d และกล้องvdo ราคาถูกมากก!!!!!! asus5/7746/3/2556 8:42:05
ขายยาง TG 05 ThEMaT10/8606/3/2556 2:49:39
'' งง กับราคาอุปกรณ์ จริง vava23/14966/3/2556 2:39:08
ขายยาง บาราคุด้า สีดำ สภาพดี DeZmoineS5/7666/3/2556 0:03:45
ขาย timoball zlc ครับ ninjaboy10/7985/3/2556 23:33:25
ขออนุญาตขายยาง Yasaka Pryde ครับ (มี 4 แผ่น) Pimple Lover1/7915/3/2556 23:13:40
ขายไม้ yasaka YE07 ใหม่แกะกล่อง chatmongkol4/6505/3/2556 22:58:38
ปิงปองย่าโมเกมส์ มีเเข่งวันไหนบ้างคับ gtgt5/8025/3/2556 22:45:33
sale...hurricane 2 neo สีดำ อ๊อดบางกรวย8/7885/3/2556 22:26:56
สอบถามเรื่องยางครับ sara5/6405/3/2556 22:20:29
สงสัยเรื่องกาว Haifu Farn1/5415/3/2556 21:53:10
------------------------------------รับ TSP GAIA ครับ------------------------ เฉิน3/6975/3/2556 21:33:54
สาวกxiom hayabusa เชิญทางนี้ pekko2/9065/3/2556 21:08:37
ขายไม้ Butterfly Petr Korbel ST สภาพใหม่ หมิน.14/11885/3/2556 20:37:03
ขายไม้ but shoare 550 บาท เด็กดี4/6095/3/2556 20:01:48
ขาย TG 05-FX ดำ , TG 05 แดง 90% morai10/10785/3/2556 19:40:15
ขายยางยังไม่ได้ตัด TG05FX,25ของแท้จากjapan สรยุทธ9/8405/3/2556 19:31:47
รับยาง Tibhar Evolution EL-P ji-pong3/7295/3/2556 19:14:20
มียาง BRYCE FX 2.1 สีดำ ขนาด 15.1*15.9 สภาพ95% มาขอแลกครับ noi3511/5775/3/2556 19:12:39
รับ timo boll w7,w5 900 barth biggluckk1/5315/3/2556 18:56:57
สอบเสร็จแล้ว อยู่ว่างๆ ลองทำไม้ดู :) singha12/7475/3/2556 18:56:38
มีไม้ BTY. มาขอแลก ครับ อ๊อดบางกรวย4/6155/3/2556 18:54:54
ขายครับ xiom sigma euro jingjai_jung5/6525/3/2556 18:04:17
สพรรณบุรีคัพ jedi0/5295/3/2556 16:45:39
ขายไม้ Joola Rossi Force ของใหม่ พร้อมกล่องครับ Pimple Lover16/11515/3/2556 15:27:21
มีร้อง เท้า กระเป๋า มิซูโน่ แท้ๆ มาขายครับ mono29/17555/3/2556 12:32:29
ขายยาง tenergy 25 แดง-ดำ ตีไป 3 ครั้ง แผ่นละ 1000 บาท ครับ (ค่าส่ง 50 บาท) song19/8565/3/2556 11:38:48
ขายไม้ Fukuhara ai ,Gergley21,Gergler ตูดเงิน,Timo boll W7 ram80/6165/3/2556 11:35:33
ขออนุญาตขาย butterfly sardius ก้นเงิน ติดหนังยาง สภาพใช้งานครับ anonymousminor1/6795/3/2556 11:34:49
ขายไม้ Xiom ครับ vodkapor8/9745/3/2556 11:15:22
ขายไม้ ANDRO TEMPER TECH OFF+ FL พร้อมยาง smash7/13515/3/2556 11:12:08
มีร้อง เท้า กระเป๋า มิซูโน่ แท้ๆ มาขายครับ mono0/5595/3/2556 10:52:19
ขออนุญาตขาย สกอร์บอร์ด DHS AKAI6/6115/3/2556 10:51:13
ยางปิงปอง Juic Return3/6465/3/2556 8:55:25
รับซื้อไม้ Michael Maze ด้ามตรง Arylate Carbon Sayan1/5225/3/2556 8:26:09
ขายไม้ ไว้ใช้ซ้อม(ป้อนลูก) ตีเล่นสนุกสนาน singha7/7465/3/2556 7:42:15
ขายไม้สำเร็จรูป ตราผีเสื้อ singha4/7645/3/2556 7:41:39
รับไม้stigaรุ่นใดก้ได้ราคาไม่เกิน1200สภาพเก่าๆหน่อย Faros2/4975/3/2556 7:37:34
จะซื้อไม้ Adidas ดีหรือ sadius ดีกว่ากันครับ Singto314/6034/3/2556 23:31:02
Page :  1  2  3  4  5  6  7  8  9  10  11  12  13  14  15  16  17  18  19  20  21  22  23  24  25  26  27  28  29  30  31  32  33  34  35  36  37  38  39  40  41  42  43  44  45  46  47  48  49  50  51  52  53  54  55  56  57  58  59  60  61  62  63  64  65  66  67  68  69  70  71  72  73  74  75  76  77  78  79  80  81  82  83  84  85  86  87  88  89  90  91  92  93  94  95  96  97  98  99  100  101  102  103  104  105  106  107  108  109  110  111  112  113  114  115  116  117  118  119  120  121  122  123  124  125  126  127  128  129  130  131  132  133  134  135  136  137  138  139  140  141  142  143  144  145  146  147  148  149  150  151  152  153  154  155  156  157  158  159  160  161  162  163  164  165  166  167  168  169  170  171  172  173  174  175  176  177  178  179  180  181  182  183  184  185  186  187  188  189  190  191  192  193  194  195  196  197  198  199  200  201 
[ First ] [<< back ] [ next>> ] [ Last ]  
VIP SPONSOR

 

ห้ามอย่านำสินค้าหนีภาษี - สินค้าหิ้วเข้ามาเอง - สินค้าปลอม มาจำหน่ายในเวปนี้
 
© 2020 All Rights Reserved
Powered by
ThaiWebWizard.com